[[{"header":{"parameterUnit":"m.s-1","parameterCategory":2,"la1":30.2991,"la2":30.254,"lo1":-89.0895,"lo2":-89.0444,"dy":0.0017,"dx":0.0017,"nx":28,"ny":28,"refTime":"2024-08-15T21:00:00:Z","depth":"0","parameterNumber":2,"parameterNumberName":"U-component_of_CURRENTS"},"data":[0,0,0,0,0,0,0,0,0,0,0,0,0,0,0,0,0,0,0,0,0,0,0,0,0,0,0,0,0,0,0,0,0,0,0,0,0,0,0,0,0,0,0,0,0,0,0,0,0,0,0,0,0,0,0,0,0,0,0.2249,0.225,0,0.2295,0.2295,0.2295,0.2298,0.2298,0.2297,0.2297,0.2325,0.2326,0.2327,0,0,0,0,0,0,0,0,0,0,0,0,0,0.2238,0.2238,0.2249,0.225,0.2251,0.2295,0.2295,0.2295,0.2298,0.2298,0.2297,0.2297,0.2325,0.2326,0.2327,0,0,0,0,0,0,0,0,0,0,0,0,0,0.2256,0.2238,0.2249,0.226,0.2262,0.2295,0.2295,0.2296,0.2298,0.2298,0.2297,0.2297,0.2325,0.2326,0.2328,0.2343,0,0,0.2332,0.2333,0,0,0,0,0,0,0,0,0.2255,0.2256,0.2257,0.2259,0.2261,0.2293,0.2302,0.2312,0.2298,0.2281,0.2297,0.2297,0.2315,0.2318,0.2323,0.2345,0.2346,0.2332,0.2333,0.2334,0.2334,0,0,0,0,0,0,0,0.2254,0.2255,0.2264,0.2258,0.2261,0.2288,0.2289,0.2304,0.2297,0.2282,0.2283,0.2294,0.2316,0.2321,0.2323,0.2346,0.2332,0.2333,0.2334,0.2335,0.2416,0.2417,0,0,0,0,0,0,0.2251,0.2253,0.2263,0.2266,0.2261,0.2289,0.229,0.2281,0.2297,0.23,0.2294,0.2294,0.2319,0.2322,0.2324,0.2395,0.2334,0.2335,0.2336,0.2415,0.2416,0.2418,0,0,0,0,0,0,0.225,0.225,0.2261,0.2264,0.2268,0.2289,0.2279,0.2282,0.2296,0.2307,0.2309,0.2307,0.2319,0.2322,0.2344,0.2394,0.2336,0.2337,0.2413,0.2415,0.2417,0.2503,0,0,0,0,0,0,0.2249,0.2249,0.2251,0.2263,0.2268,0.231,0.228,0.2283,0.2304,0.2304,0.2318,0.232,0.2319,0.2342,0.2346,0.2395,0.2338,0.2412,0.2414,0.2417,0.2498,0.2507,0.2515,0,0,0,0,0,0.2248,0.2265,0.225,0.2253,0.2265,0.2312,0.2318,0.2329,0.2305,0.2335,0.2323,0.232,0.236,0.2344,0.2348,0.2399,0.2411,0.2414,0.2416,0.2494,0.2505,0.2515,0,0,0,0,0,0,0.2268,0.2267,0.2252,0.2267,0.2296,0.2315,0.2342,0.2336,0.2349,0.234,0.2332,0.2334,0.2384,0.2368,0.235,0.2427,0.2387,0.2391,0.2445,0.2456,0.2464,0.253,0.2339,0,0,0,0,0,0.2269,0.2279,0.2287,0.2306,0.2315,0.2323,0.2342,0.2348,0.2358,0.2363,0.2368,0.2371,0.2398,0.2405,0.2429,0.2459,0.2497,0.2494,0.2502,0.2509,0.2565,0.2668,0.2693,0.2427,0.2427,0.2427,0,0,0.2278,0.2285,0.2288,0.2311,0.2324,0.2355,0.2333,0.2371,0.2405,0.2365,0.2406,0.2411,0.2415,0.2463,0.2482,0.2453,0.2594,0.2513,0.2519,0.2572,0.2674,0.27,0.2724,0.2429,0.2429,0.2429,0,0,0.2311,0.2309,0.2322,0.235,0.238,0.2395,0.2407,0.2426,0.2446,0.2479,0.2468,0.2512,0.2517,0.2559,0.2571,0.264,0.2646,0.262,0.2709,0.2807,0.2832,0.2853,0.2896,0.2921,0.2611,0.2611,0.2611,0,0.2321,0.234,0.2343,0.237,0.2406,0.2411,0.245,0.2476,0.2504,0.2538,0.2505,0.2579,0.2585,0.2674,0.2697,0.2671,0.2696,0.2668,0.2824,0.2846,0.2867,0.2906,0.2933,0.2616,0.2615,0.2615,0.2614,0,0.2357,0.2383,0.2405,0.2433,0.2473,0.2521,0.2551,0.2591,0.2601,0.2629,0.2719,0.2733,0.2784,0.2784,0.2763,0.2906,0.2863,0.2834,0.2806,0.29,0.2932,0.2959,0.2622,0.2621,0.2619,0.2618,0,0,0.2358,0.2415,0.2424,0.246,0.2516,0.2558,0.2623,0.2702,0.2757,0.2796,0.2888,0.295,0.2963,0.2982,0.2969,0.3052,0.3203,0.3005,0.3008,0.3063,0.3385,0.3132,0.3135,0.3192,0.3198,0.3203,0.3334,0,0.2392,0.2459,0.248,0.2567,0.2615,0.2655,0.2721,0.2791,0.2844,0.2932,0.2993,0.3068,0.3031,0.3058,0.3147,0.3198,0.3284,0.3169,0.3275,0.3278,0.3056,0.3162,0.2923,0.3,0.3359,0.3364,0.3367,0,0.2421,0.2475,0.2554,0.2654,0.2675,0.2723,0.2847,0.2906,0.3024,0.3065,0.316,0.3193,0.3334,0.3278,0.346,0.3379,0.3414,0.3444,0.3448,0.3218,0.3076,0.2972,0.3035,0.2917,0.3407,0.3404,0.3401,0,0.2448,0.2532,0.2608,0.2642,0.2742,0.2792,0.2846,0.2951,0.302,0.3159,0.3222,0.3365,0.3439,0.3543,0.358,0.3543,0.3757,0.3703,0.3515,0.3495,0.332,0.3273,0.3304,0.3872,0.3872,0.3872,0.3871,0,0.2497,0.2563,0.2624,0.2675,0.2773,0.2821,0.2932,0.2999,0.3111,0.3195,0.3292,0.3375,0.3517,0.3618,0.3656,0.3647,0.3817,0.3578,0.3537,0.3329,0.3283,0.319,0.3163,0.3877,0.3875,0.3875,0.3874,0,0.2536,0.2571,0.2672,0.2767,0.2792,0.2865,0.2964,0.3041,0.3131,0.3248,0.3297,0.344,0.3534,0.3626,0.378,0.3703,0.3598,0.3699,0.3403,0.3322,0.2952,0.2937,0.2854,0.2789,0.3519,0.3514,0.351,0,0.2565,0.2619,0.2726,0.278,0.2827,0.2917,0.2973,0.3053,0.3115,0.3255,0.331,0.3435,0.3478,0.3571,0.3483,0.3482,0.3439,0.3232,0.3118,0.293,0.2889,0.2794,0.2744,0.2927,0.2918,0.2911,0.2905,0,0.266,0.2693,0.2784,0.2851,0.2916,0.2966,0.3033,0.3068,0.3144,0.3206,0.3265,0.331,0.3327,0.3179,0.312,0.3085,0.299,0.3073,0.3012,0.2543,0.2324,0.2237,0.2816,0.2842,0.2848,0.2853,0.2856,0.2859,0.2751,0.2813,0.2894,0.2938,0.2991,0.2973,0.2954,0.2991,0.3011,0.2995,0.3115,0.3056,0.2923,0.2768,0.2719,0.2384,0.2513,0.2251,0.2288,0.224,0.2049,0.2428,0.23,0.2303,0.2306,0.2308,0.231,0,0.2845,0.289,0.2961,0.2985,0.2959,0.297,0.2958,0.2877,0.2798,0.2801,0.2774,0.2532,0.232,0.2198,0.1835,0.1652,0.1615,0.1584,0.1479,0.1507,0.1963,0.1802,0.1394,0.1394,0.1394,0.1395,0.1395,0.1395,0.2924,0.2987,0.2967,0.2912,0.2888,0.2771,0.2704,0.2585,0.2528,0.229,0.2104,0.2051,0.1873,0.1506,0.1211,0.1161,0.1105,0.0918,0.1066,0.1431,0.1499,0.1563,0.1407,0.0923,0.0923,0.0493,0.049,0.0487]},{"header":{"parameterUnit":"m.s-1","parameterCategory":2,"la1":30.2991,"la2":30.254,"lo1":-89.0895,"lo2":-89.0444,"dy":0.0017,"dx":0.0017,"nx":28,"ny":28,"refTime":"2024-08-15T21:00:00:Z","depth":"0","parameterNumber":3,"parameterNumberName":"V-component_of_CURRENTS"},"data":[0,0,0,0,0,0,0,0,0,0,0,0,0,0,0,0,0,0,0,0,0,0,0,0,0,0,0,0,0,0,0,0,0,0,0,0,0,0,0,0,0,0,0,0,0,0,0,0,0,0,0,0,0,0,0,0,0,0,0.0157,0.0157,0,0.0206,0.0207,0.0208,0.0229,0.0229,0.0228,0.0228,0.0295,0.0297,0.0299,0,0,0,0,0,0,0,0,0,0,0,0,0,0.0131,0.0131,0.0157,0.0157,0.0157,0.0206,0.0207,0.0208,0.0229,0.0229,0.0228,0.0228,0.0294,0.0297,0.0299,0,0,0,0,0,0,0,0,0,0,0,0,0,0.016,0.0131,0.0157,0.0171,0.0173,0.0206,0.0207,0.0208,0.0229,0.0229,0.0228,0.0228,0.0293,0.0296,0.03,0.033,0,0,0.0309,0.0311,0,0,0,0,0,0,0,0,0.0158,0.0161,0.0169,0.017,0.0172,0.0208,0.0222,0.0249,0.0229,0.0211,0.0228,0.0227,0.0266,0.0271,0.0286,0.0333,0.0336,0.031,0.0311,0.0313,0.0314,0,0,0,0,0,0,0,0.0156,0.016,0.0179,0.0169,0.0171,0.0193,0.0196,0.0228,0.0244,0.0213,0.0214,0.0214,0.0267,0.0283,0.0288,0.0337,0.0309,0.0312,0.0314,0.0316,0.0448,0.045,0,0,0,0,0,0,0.0142,0.0158,0.0178,0.018,0.0161,0.0193,0.0197,0.02,0.0243,0.0248,0.0215,0.0215,0.0278,0.0284,0.029,0.0371,0.0313,0.0316,0.0318,0.0447,0.0449,0.045,0,0,0,0,0,0,0.0142,0.0144,0.0176,0.0168,0.0173,0.0194,0.0197,0.0201,0.0219,0.0244,0.025,0.0229,0.0277,0.0286,0.0333,0.0372,0.0317,0.032,0.0445,0.0447,0.0449,0.0505,0,0,0,0,0,0,0.0141,0.0143,0.0144,0.0167,0.0173,0.021,0.0197,0.0202,0.0219,0.022,0.0258,0.0263,0.0278,0.0328,0.0336,0.0375,0.0323,0.0443,0.0446,0.0449,0.0502,0.051,0.0516,0,0,0,0,0,0.014,0.0153,0.0144,0.0146,0.0171,0.0211,0.0218,0.0232,0.022,0.0244,0.0265,0.0262,0.0353,0.0332,0.0341,0.0382,0.0441,0.0445,0.0448,0.0498,0.0508,0.0516,0,0,0,0,0,0,0.0151,0.0156,0.0147,0.0162,0.0186,0.0214,0.0233,0.0235,0.027,0.0271,0.0285,0.0293,0.035,0.0356,0.0333,0.0429,0.0396,0.0402,0.0431,0.044,0.0448,0.0497,0.0325,0,0,0,0,0,0.0148,0.0158,0.0169,0.0185,0.0193,0.021,0.0225,0.0238,0.0266,0.028,0.0303,0.0332,0.0373,0.0396,0.043,0.0483,0.0487,0.0514,0.0522,0.0528,0.0574,0.061,0.0626,0.0462,0.0462,0.0462,0,0,0.0157,0.0162,0.0167,0.0188,0.0203,0.0242,0.022,0.0253,0.03,0.0283,0.035,0.0359,0.0392,0.0455,0.048,0.0465,0.0566,0.0532,0.0537,0.0582,0.0616,0.0632,0.0646,0.0465,0.0464,0.0464,0,0,0.0192,0.0183,0.0204,0.0225,0.0249,0.027,0.0278,0.0309,0.0335,0.0392,0.0394,0.0436,0.0484,0.0529,0.0554,0.0625,0.0602,0.0616,0.0701,0.0734,0.0748,0.0761,0.0741,0.0751,0.0622,0.0622,0.0622,0,0.0198,0.023,0.0221,0.0254,0.0284,0.0284,0.0333,0.0366,0.0413,0.0455,0.0423,0.0529,0.0536,0.0643,0.066,0.0647,0.0637,0.066,0.0745,0.0758,0.077,0.0747,0.0758,0.0625,0.0625,0.0625,0.0624,0,0.0253,0.028,0.0301,0.0341,0.0374,0.0419,0.0455,0.0499,0.0516,0.0554,0.0648,0.0663,0.0733,0.0728,0.0717,0.0814,0.0766,0.0744,0.0722,0.079,0.076,0.077,0.063,0.0629,0.0628,0.0627,0,0,0.0266,0.0326,0.0333,0.0374,0.0426,0.0467,0.0546,0.0634,0.0707,0.0742,0.0845,0.0897,0.0899,0.0929,0.0915,0.0943,0.0982,0.0881,0.0881,0.0861,0.1016,0.0958,0.0963,0.0965,0.0968,0.0971,0.0943,0,0.0316,0.0394,0.0415,0.0513,0.0563,0.0599,0.0681,0.0758,0.0816,0.0912,0.0952,0.1033,0.0978,0.1005,0.1031,0.1013,0.102,0.099,0.0956,0.0955,0.0897,0.0979,0.0964,0.0938,0.0953,0.0954,0.0956,0,0.0364,0.0417,0.0509,0.0616,0.0642,0.0702,0.0839,0.0912,0.1037,0.1082,0.1169,0.1191,0.127,0.1188,0.1216,0.1192,0.112,0.1082,0.1079,0.1031,0.0921,0.0884,0.0957,0.0944,0.0971,0.097,0.0969,0,0.0393,0.0489,0.057,0.0603,0.0716,0.0778,0.0846,0.0968,0.1062,0.1193,0.1269,0.1351,0.1396,0.1365,0.1278,0.1253,0.1269,0.1219,0.1098,0.1089,0.1081,0.1067,0.1151,0.1232,0.1232,0.1232,0.1232,0,0.0447,0.0517,0.0589,0.0639,0.0761,0.0815,0.0964,0.104,0.1176,0.1309,0.1355,0.1462,0.1443,0.1444,0.1342,0.126,0.1316,0.1151,0.1108,0.1091,0.108,0.107,0.1054,0.1231,0.1231,0.1231,0.1231,0,0.0483,0.0523,0.0629,0.0739,0.0779,0.0867,0.1025,0.1143,0.1241,0.1413,0.146,0.1566,0.1579,0.1513,0.1454,0.1342,0.1235,0.1191,0.1146,0.11,0.0995,0.0982,0.101,0.1008,0.1097,0.1096,0.1095,0,0.0516,0.0566,0.0688,0.0762,0.0818,0.0946,0.1053,0.117,0.1293,0.1475,0.1568,0.1634,0.1699,0.159,0.1423,0.1261,0.1207,0.1103,0.1077,0.1032,0.0986,0.096,0.0955,0.1057,0.1056,0.1055,0.1054,0,0.0592,0.0621,0.0708,0.0834,0.0946,0.1079,0.1223,0.1315,0.1463,0.1591,0.1726,0.1782,0.1713,0.1588,0.1367,0.1241,0.1111,0.1077,0.1075,0.1025,0.0965,0.0925,0.0987,0.1046,0.1046,0.1047,0.1048,0.1048,0.0653,0.0716,0.0808,0.0931,0.1051,0.1184,0.1269,0.1421,0.1575,0.1731,0.1794,0.1866,0.1708,0.1445,0.1296,0.1035,0.1054,0.0949,0.0948,0.0934,0.0929,0.095,0.0932,0.0932,0.0932,0.0932,0.0932,0,0.0738,0.08,0.0909,0.104,0.1146,0.1202,0.1369,0.1435,0.1573,0.1749,0.1841,0.1774,0.161,0.14,0.1064,0.0928,0.0883,0.0868,0.0865,0.0876,0.0939,0.0935,0.0865,0.0865,0.0865,0.0865,0.0865,0.0865,0.0796,0.0896,0.093,0.1084,0.1167,0.1264,0.1331,0.1439,0.1558,0.1663,0.1694,0.1725,0.1602,0.119,0.095,0.0887,0.0854,0.0791,0.0803,0.0872,0.0881,0.0889,0.0886,0.0807,0.0807,0.0746,0.0746,0.0745]}],[{"header":{"parameterUnit":"m.s-1","parameterCategory":2,"la1":30.2991,"la2":30.254,"lo1":-89.0895,"lo2":-89.0444,"dy":0.0017,"dx":0.0017,"nx":28,"ny":28,"refTime":"2024-08-15T21:00:00:Z","depth":"2","parameterNumber":2,"parameterNumberName":"U-component_of_CURRENTS"},"data":[0,0,0,0,0,0,0,0,0,0,0,0,0,0,0,0,0,0,0,0,0,0,0,0,0,0,0,0,0,0,0,0,0,0,0,0,0,0,0,0,0,0,0,0,0,0,0,0,0,0,0,0,0,0,0,0,0,0,0.2096,0.2096,0,0.2118,0.2118,0.2117,0.2131,0.2131,0.2132,0.2133,0.2161,0.2162,0.2162,0,0,0,0,0,0,0,0,0,0,0,0,0,0.2063,0.2063,0.2096,0.2096,0.2097,0.2118,0.2118,0.2117,0.2131,0.2131,0.2132,0.2133,0.2161,0.2162,0.2162,0,0,0,0,0,0,0,0,0,0,0,0,0,0.2074,0.2063,0.2095,0.2112,0.2114,0.2118,0.2118,0.2117,0.213,0.2131,0.2132,0.2133,0.2161,0.2162,0.2162,0.2142,0,0,0.2162,0.2162,0,0,0,0,0,0,0,0,0.2073,0.2074,0.2108,0.2111,0.2113,0.2129,0.2117,0.2128,0.213,0.2117,0.2133,0.2134,0.2155,0.2156,0.2147,0.2143,0.2144,0.2162,0.2162,0.2162,0.2162,0,0,0,0,0,0,0,0.2072,0.2073,0.2097,0.2109,0.2112,0.2118,0.212,0.2119,0.2124,0.2118,0.2121,0.2134,0.2155,0.2147,0.2148,0.2145,0.2162,0.2162,0.2162,0.2163,0.2239,0.2241,0,0,0,0,0,0,0.2083,0.2073,0.2097,0.2099,0.2103,0.2118,0.212,0.2117,0.2124,0.2128,0.2133,0.2135,0.2146,0.2148,0.215,0.2234,0.2162,0.2163,0.2163,0.2237,0.224,0.2242,0,0,0,0,0,0,0.2081,0.2084,0.2096,0.2093,0.2096,0.2119,0.2114,0.2117,0.2119,0.2137,0.214,0.2135,0.2147,0.2149,0.2192,0.2231,0.2163,0.2163,0.2235,0.2238,0.2241,0.2334,0,0,0,0,0,0,0.208,0.2083,0.2092,0.2093,0.2097,0.2124,0.2114,0.2117,0.2128,0.213,0.2139,0.2142,0.2148,0.2192,0.2192,0.223,0.2163,0.2233,0.2236,0.224,0.2328,0.234,0.2349,0,0,0,0,0,0.2078,0.2096,0.2091,0.2096,0.2105,0.2125,0.2127,0.2142,0.2127,0.2142,0.2162,0.2142,0.2215,0.2194,0.2194,0.2233,0.2231,0.2235,0.224,0.2324,0.2337,0.2349,0,0,0,0,0,0,0.2117,0.2099,0.2095,0.2114,0.2128,0.2131,0.215,0.2141,0.2161,0.2176,0.2165,0.2171,0.2225,0.2212,0.2188,0.2266,0.222,0.2224,0.2284,0.2296,0.2307,0.2378,0.2163,0,0,0,0,0,0.2121,0.2117,0.2115,0.214,0.2139,0.2136,0.2146,0.2163,0.2178,0.2186,0.2199,0.2216,0.2238,0.2255,0.2276,0.2309,0.2326,0.2334,0.2345,0.2354,0.2413,0.2457,0.2478,0.2256,0.2256,0.2256,0,0,0.2128,0.2141,0.2127,0.2147,0.2149,0.2159,0.2143,0.2179,0.2216,0.2188,0.2247,0.2254,0.2256,0.2314,0.2334,0.231,0.2422,0.2359,0.2367,0.2422,0.2464,0.2486,0.2505,0.2259,0.2259,0.2258,0,0,0.2161,0.2163,0.2158,0.2171,0.2204,0.2206,0.2213,0.2229,0.2266,0.2328,0.2315,0.2372,0.2387,0.2421,0.2428,0.2507,0.2476,0.2479,0.2592,0.2633,0.2652,0.2669,0.2704,0.2724,0.2483,0.2484,0.2484,0,0.2167,0.2182,0.217,0.2191,0.2222,0.2219,0.2247,0.2273,0.2319,0.2375,0.2376,0.2457,0.246,0.2527,0.257,0.2538,0.254,0.2539,0.2649,0.2666,0.2682,0.2714,0.2735,0.2489,0.2488,0.2488,0.2487,0,0.2191,0.2211,0.2223,0.2232,0.2267,0.2301,0.2338,0.2394,0.2441,0.2481,0.2594,0.2623,0.2672,0.2672,0.2657,0.2755,0.2712,0.2654,0.2619,0.2711,0.2737,0.2757,0.2496,0.2494,0.2493,0.2491,0,0,0.2161,0.2214,0.2219,0.2261,0.2303,0.2345,0.2422,0.2504,0.2571,0.2657,0.277,0.2839,0.2854,0.2868,0.2838,0.2903,0.3016,0.2839,0.2839,0.2881,0.31,0.283,0.2825,0.2955,0.2959,0.2962,0.3067,0,0.2176,0.224,0.2266,0.2343,0.2377,0.2433,0.2503,0.26,0.2681,0.2789,0.2876,0.2956,0.2914,0.2949,0.3006,0.3005,0.3075,0.2994,0.3003,0.3005,0.2758,0.2842,0.2617,0.267,0.3086,0.309,0.3092,0,0.2184,0.2241,0.2321,0.2437,0.2455,0.251,0.2663,0.273,0.2865,0.2937,0.3037,0.3071,0.3183,0.3139,0.3227,0.3161,0.3168,0.3181,0.3182,0.2926,0.2772,0.2649,0.269,0.3125,0.3122,0.312,0.3118,0,0.2214,0.2287,0.2376,0.2407,0.2516,0.2604,0.2669,0.2795,0.2881,0.3034,0.3113,0.3209,0.329,0.3317,0.3307,0.328,0.3399,0.3342,0.3126,0.3106,0.2921,0.2875,0.346,0.346,0.346,0.3459,0.3459,0,0.2237,0.2303,0.2403,0.2459,0.2578,0.2655,0.2798,0.2869,0.2998,0.309,0.3178,0.3258,0.3346,0.3392,0.3368,0.3275,0.3426,0.3189,0.3125,0.2938,0.2895,0.3291,0.327,0.3463,0.3462,0.3462,0.3461,0,0.2255,0.2309,0.2417,0.2552,0.2602,0.2697,0.285,0.2926,0.3042,0.3169,0.3226,0.3351,0.3359,0.3379,0.3439,0.3329,0.3284,0.3223,0.2984,0.2886,0.2969,0.2952,0.3024,0.3016,0.3008,0.3002,0.2997,0,0.2283,0.234,0.2483,0.254,0.2605,0.2745,0.2817,0.2943,0.3008,0.3185,0.323,0.3323,0.3278,0.3226,0.3095,0.2977,0.3121,0.2714,0.262,0.2999,0.2931,0.2925,0.2918,0.244,0.2431,0.2423,0.2417,0,0.2334,0.2376,0.2457,0.2561,0.2652,0.2747,0.286,0.2901,0.3029,0.3058,0.3082,0.307,0.3028,0.277,0.2625,0.2539,0.2692,0.2547,0.3058,0.2523,0.2438,0.2373,0.2389,0.235,0.2357,0.2362,0.2365,0.2368,0.2359,0.2401,0.2487,0.2581,0.2679,0.2723,0.2747,0.2792,0.2803,0.276,0.2819,0.2643,0.2618,0.2201,0.2075,0.2005,0.22,0.2118,0.2147,0.2184,0.2036,0.1935,0.1729,0.1732,0.1735,0.1737,0.1739,0,0.2353,0.2409,0.2492,0.2572,0.2628,0.2715,0.2752,0.2691,0.2597,0.2453,0.2333,0.1928,0.172,0.1724,0.1495,0.1419,0.1489,0.1367,0.1485,0.155,0.1608,0.1438,0.097,0.0967,0.0965,0.0963,0,0,0.2343,0.2391,0.2422,0.25,0.2579,0.2584,0.2579,0.2432,0.2292,0.1895,0.1661,0.1612,0.1641,0.1267,0.1199,0.1068,0.1314,0.1011,0.163,0.1837,0.1893,0.2035,0.1841,0,0,0,0,0]},{"header":{"parameterUnit":"m.s-1","parameterCategory":2,"la1":30.2991,"la2":30.254,"lo1":-89.0895,"lo2":-89.0444,"dy":0.0017,"dx":0.0017,"nx":28,"ny":28,"refTime":"2024-08-15T21:00:00:Z","depth":"2","parameterNumber":3,"parameterNumberName":"V-component_of_CURRENTS"},"data":[0,0,0,0,0,0,0,0,0,0,0,0,0,0,0,0,0,0,0,0,0,0,0,0,0,0,0,0,0,0,0,0,0,0,0,0,0,0,0,0,0,0,0,0,0,0,0,0,0,0,0,0,0,0,0,0,0,0,-0.0015,-0.0015,0,0.0007,0.0008,0.0008,0.0031,0.0031,0.0031,0.0031,0.0065,0.0065,0.0066,0,0,0,0,0,0,0,0,0,0,0,0,0,-0.0026,-0.0026,-0.0015,-0.0015,-0.0015,0.0007,0.0008,0.0008,0.0031,0.0031,0.0031,0.0032,0.0065,0.0065,0.0066,0,0,0,0,0,0,0,0,0,0,0,0,0,-0.0013,-0.0026,-0.0015,-0.0001,0.0,0.0007,0.0008,0.0008,0.0031,0.0031,0.0031,0.0032,0.0064,0.0065,0.0066,0.0066,0,0,0.0069,0.007,0,0,0,0,0,0,0,0,-0.0014,-0.0013,-0.0004,-0.0002,-0.0001,0.0016,0.0016,0.0028,0.0031,0.002,0.0031,0.0032,0.0048,0.0051,0.0056,0.0068,0.0069,0.007,0.007,0.0071,0.0071,0,0,0,0,0,0,0,-0.0015,-0.0013,-0.0005,-0.0003,-0.0002,0.0008,0.001,0.0018,0.0033,0.0021,0.0023,0.0023,0.0049,0.0055,0.0057,0.007,0.0069,0.007,0.0071,0.0071,0.0155,0.0157,0,0,0,0,0,0,-0.0021,-0.0014,-0.0006,-0.0004,-0.0008,0.0007,0.001,0.0011,0.0033,0.0036,0.0023,0.0024,0.0053,0.0055,0.0058,0.0122,0.0071,0.0072,0.0072,0.0154,0.0156,0.0157,0,0,0,0,0,0,-0.0021,-0.002,-0.0007,-0.001,-0.0007,0.0007,0.0008,0.0011,0.0017,0.0034,0.0038,0.0025,0.0053,0.0056,0.0099,0.0121,0.0072,0.0073,0.0152,0.0154,0.0156,0.021,0,0,0,0,0,0,-0.0021,-0.002,-0.002,-0.001,-0.0008,0.0005,0.0008,0.0011,0.0016,0.0018,0.0037,0.0041,0.0054,0.0098,0.01,0.0122,0.0074,0.015,0.0153,0.0156,0.0206,0.0214,0.022,0,0,0,0,0,-0.0022,-0.0013,-0.002,-0.0019,-0.0008,0.0005,0.0008,0.002,0.0016,0.0024,0.0056,0.004,0.0118,0.01,0.0103,0.0125,0.0148,0.0152,0.0155,0.0203,0.0212,0.022,0,0,0,0,0,0,-0.0005,-0.001,-0.0017,-0.0008,-0.0003,0.0009,0.0019,0.0017,0.0045,0.0057,0.0063,0.0071,0.0114,0.0113,0.0093,0.0159,0.0128,0.0133,0.0164,0.0172,0.018,0.022,0.0075,0,0,0,0,0,-0.0007,-0.0005,-0.0008,0.0002,0.0001,0.0004,0.0009,0.0022,0.0044,0.0056,0.0076,0.0102,0.013,0.0146,0.017,0.0204,0.0197,0.0219,0.0226,0.0232,0.0268,0.0275,0.0285,0.0169,0.0169,0.0169,0,0,-0.0001,0.0001,-0.0001,0.0004,0.0008,0.0014,0.0009,0.003,0.006,0.0056,0.0112,0.0126,0.0144,0.0195,0.0213,0.0198,0.0257,0.0237,0.0242,0.0276,0.028,0.0291,0.0301,0.0172,0.0171,0.0171,0,0,0.0025,0.0015,0.0023,0.0026,0.0037,0.0035,0.0036,0.0056,0.009,0.0148,0.0149,0.0192,0.0232,0.0258,0.0273,0.0332,0.0293,0.0319,0.0391,0.0396,0.0406,0.0414,0.0396,0.0402,0.0325,0.0325,0.0325,0,0.0028,0.0035,0.003,0.0044,0.0051,0.0039,0.0056,0.0086,0.0128,0.0176,0.0183,0.0277,0.0275,0.0342,0.0365,0.035,0.0334,0.0353,0.0405,0.0413,0.0421,0.04,0.0407,0.0328,0.0327,0.0327,0.0327,0,0.0058,0.006,0.0068,0.007,0.0086,0.0096,0.0126,0.0167,0.0204,0.0245,0.0347,0.038,0.0429,0.0432,0.0421,0.0473,0.0436,0.0407,0.038,0.0436,0.041,0.0416,0.0332,0.0331,0.033,0.0329,0,0,0.006,0.0077,0.0079,0.0084,0.0098,0.0114,0.0181,0.0236,0.0303,0.0375,0.047,0.0532,0.0544,0.0563,0.0548,0.0575,0.0591,0.0519,0.0517,0.0497,0.0583,0.0513,0.0512,0.0561,0.0563,0.0564,0.0533,0,0.007,0.0094,0.0112,0.0132,0.0134,0.0167,0.0244,0.0315,0.0382,0.0473,0.0544,0.0631,0.059,0.0631,0.0637,0.0606,0.0614,0.0602,0.0538,0.0537,0.0465,0.052,0.0531,0.0502,0.0539,0.0539,0.054,0,0.0091,0.0095,0.0124,0.0173,0.0186,0.0219,0.0327,0.0404,0.0531,0.0604,0.0686,0.0723,0.0775,0.0742,0.0727,0.0713,0.0656,0.0643,0.064,0.0571,0.048,0.0458,0.051,0.0549,0.0549,0.0548,0.0547,0,0.0091,0.0108,0.0129,0.0136,0.0197,0.0259,0.032,0.0455,0.0562,0.0691,0.0779,0.082,0.0895,0.0828,0.0765,0.0743,0.0749,0.0696,0.0592,0.0584,0.0585,0.0575,0.0704,0.0704,0.0704,0.0704,0.0704,0,0.0093,0.0098,0.0132,0.0141,0.0202,0.0283,0.0417,0.0489,0.0657,0.0801,0.084,0.0948,0.0932,0.0922,0.0802,0.0709,0.0754,0.0632,0.0588,0.0599,0.0591,0.0631,0.0623,0.0703,0.0703,0.0704,0.0704,0,0.0084,0.0101,0.0113,0.0176,0.0203,0.0264,0.0447,0.0556,0.0721,0.0903,0.0963,0.1071,0.1065,0.0994,0.0926,0.0796,0.0689,0.0643,0.0649,0.0606,0.0506,0.0502,0.0522,0.052,0.0518,0.0516,0.0515,0,0.0084,0.0087,0.0123,0.0151,0.0175,0.029,0.0391,0.056,0.0685,0.0975,0.1044,0.1152,0.1193,0.1041,0.0874,0.0673,0.0665,0.0551,0.0519,0.0541,0.0496,0.0494,0.0492,0.0531,0.053,0.0529,0.0528,0,0.0056,0.0069,0.0087,0.0151,0.0217,0.0315,0.0469,0.0567,0.0825,0.0986,0.1177,0.1254,0.119,0.1032,0.081,0.0664,0.0571,0.0522,0.0578,0.0563,0.0544,0.05,0.05,0.052,0.0521,0.0521,0.0522,0.0522,0.0031,0.004,0.0092,0.0155,0.0255,0.0381,0.0495,0.0659,0.0869,0.1152,0.1191,0.1288,0.1186,0.0871,0.0685,0.0499,0.0512,0.0421,0.0427,0.0434,0.0428,0.0406,0.0353,0.0353,0.0353,0.0353,0.0353,0,0.0003,0.0036,0.0103,0.0207,0.0353,0.0416,0.0591,0.0718,0.0956,0.111,0.1269,0.1105,0.0981,0.0825,0.0555,0.0391,0.0405,0.032,0.0388,0.0397,0.0405,0.0401,0.0317,0.0317,0.0316,0.0315,0,0,-0.002,0.0029,0.0087,0.0295,0.0428,0.0626,0.0748,0.0868,0.0977,0.1113,0.1158,0.119,0.1007,0.0781,0.0602,0.0464,0.0456,0.0422,0.0468,0.058,0.0589,0.048,0.0485,0,0,0,0,0]}],[{"header":{"parameterUnit":"m.s-1","parameterCategory":2,"la1":30.2991,"la2":30.254,"lo1":-89.0895,"lo2":-89.0444,"dy":0.0017,"dx":0.0017,"nx":28,"ny":28,"refTime":"2024-08-15T21:00:00:Z","depth":"4","parameterNumber":2,"parameterNumberName":"U-component_of_CURRENTS"},"data":[0,0,0,0,0,0,0,0,0,0,0,0,0,0,0,0,0,0,0,0,0,0,0,0,0,0,0,0,0,0,0,0,0,0,0,0,0,0,0,0,0,0,0,0,0,0,0,0,0,0,0,0,0,0,0,0,0,0,0.094,0.094,0,0.0937,0.0937,0.0937,0.0934,0.0934,0.0933,0.0933,0.0975,0.0977,0.0978,0,0,0,0,0,0,0,0,0,0,0,0,0,0.0953,0.0953,0.094,0.094,0.0939,0.0937,0.0937,0.0937,0.0934,0.0934,0.0933,0.0933,0.0975,0.0977,0.0978,0,0,0,0,0,0,0,0,0,0,0,0,0,0.0951,0.0953,0.094,0.0935,0.0934,0.0937,0.0937,0.0937,0.0934,0.0934,0.0933,0.0933,0.0974,0.0977,0.0979,0.1002,0,0,0.0985,0.0986,0,0,0,0,0,0,0,0,0.0952,0.0951,0.0936,0.0935,0.0935,0.0933,0.0957,0.096,0.0934,0.0938,0.0933,0.0933,0.0964,0.0967,0.0971,0.1004,0.1006,0.0985,0.0987,0.0988,0.0988,0,0,0,0,0,0,0,0.0952,0.0951,0.0942,0.0936,0.0935,0.0936,0.0936,0.0958,0.0957,0.0937,0.0936,0.0931,0.0964,0.0969,0.0972,0.1006,0.0985,0.0987,0.0989,0.0989,0.1124,0.1126,0,0,0,0,0,0,0.0946,0.0952,0.0942,0.0942,0.0938,0.0936,0.0936,0.0936,0.0956,0.0957,0.0931,0.0931,0.0966,0.097,0.0974,0.1026,0.0988,0.099,0.0991,0.1122,0.1124,0.1127,0,0,0,0,0,0,0.0946,0.0945,0.0942,0.0944,0.0943,0.0936,0.0937,0.0936,0.0962,0.095,0.0953,0.096,0.0965,0.0971,0.0997,0.1027,0.0991,0.0993,0.1119,0.1122,0.1126,0.1117,0,0,0,0,0,0,0.0947,0.0946,0.0959,0.0943,0.0942,0.0948,0.0937,0.0937,0.0957,0.0957,0.0975,0.0977,0.0965,0.0994,0.1,0.1029,0.0994,0.1116,0.112,0.1124,0.1114,0.1119,0.1124,0,0,0,0,0,0.0947,0.0946,0.096,0.0959,0.0956,0.0948,0.0948,0.0943,0.0959,0.0968,0.0978,0.0977,0.1026,0.0997,0.1003,0.1034,0.1114,0.1119,0.1124,0.1112,0.1118,0.1124,0,0,0,0,0,0,0.0949,0.0946,0.0959,0.0958,0.0961,0.0946,0.0956,0.0964,0.0982,0.0988,0.0991,0.0993,0.1046,0.1045,0.1013,0.1092,0.1078,0.1084,0.1067,0.1073,0.1078,0.1072,0.0996,0,0,0,0,0,0.096,0.0962,0.0963,0.0962,0.0975,0.0981,0.0985,0.0979,0.0984,0.0993,0.1012,0.1038,0.1071,0.1072,0.1108,0.1129,0.1145,0.1163,0.1168,0.1171,0.1175,0.1243,0.1253,0.1144,0.1144,0.1143,0,0,0.0963,0.0956,0.0962,0.0964,0.0975,0.0981,0.0983,0.0987,0.0989,0.0996,0.1028,0.1069,0.1091,0.1122,0.1145,0.1117,0.1207,0.1178,0.118,0.1182,0.1249,0.1259,0.1268,0.1147,0.1146,0.1146,0,0,0.0955,0.0971,0.0979,0.0979,0.0986,0.0989,0.1,0.1013,0.1023,0.1042,0.1073,0.1119,0.1152,0.1171,0.1183,0.124,0.1253,0.1273,0.1259,0.1324,0.1333,0.1341,0.1344,0.1352,0.1246,0.1246,0.1246,0,0.0971,0.096,0.0979,0.0978,0.0966,0.1,0.0995,0.1016,0.1033,0.105,0.1049,0.1152,0.1169,0.1218,0.1233,0.1249,0.1274,0.1223,0.1327,0.1336,0.1344,0.1346,0.1355,0.1247,0.1247,0.1247,0.1247,0,0.0955,0.0958,0.096,0.0973,0.0971,0.0966,0.0985,0.1022,0.1046,0.1059,0.1132,0.1164,0.1217,0.1244,0.1243,0.1327,0.1322,0.1344,0.1301,0.1354,0.1352,0.1362,0.1247,0.1247,0.1247,0.1247,0,0,0.0966,0.0957,0.096,0.095,0.0956,0.0945,0.098,0.1007,0.1049,0.1084,0.1123,0.119,0.1235,0.1256,0.1294,0.1335,0.14,0.1358,0.1361,0.1338,0.1512,0.1375,0.1371,0.1449,0.1452,0.1454,0.1474,0,0.0957,0.0924,0.093,0.0913,0.0895,0.093,0.0965,0.0994,0.1032,0.1092,0.1142,0.1218,0.123,0.128,0.132,0.1417,0.1432,0.139,0.1484,0.1485,0.134,0.1381,0.1462,0.1481,0.1483,0.1485,0.1486,0,0.0935,0.0906,0.0869,0.0866,0.0874,0.0891,0.0936,0.0968,0.1063,0.1104,0.1171,0.1233,0.1321,0.1326,0.1455,0.1436,0.1466,0.151,0.1513,0.1397,0.1367,0.143,0.1504,0.1502,0.1501,0.15,0.1499,0,0.0868,0.0865,0.0819,0.0807,0.0827,0.0853,0.0897,0.0979,0.1024,0.1135,0.1183,0.1287,0.1346,0.1438,0.1513,0.151,0.1631,0.1635,0.152,0.1509,0.1627,0.1619,0.1702,0.1702,0.1702,0.1702,0.1702,0,0.0807,0.0786,0.0799,0.0766,0.0777,0.0812,0.0864,0.0939,0.1047,0.1103,0.1199,0.1241,0.1388,0.146,0.1526,0.1542,0.164,0.152,0.1516,0.1619,0.161,0.1631,0.1623,0.1702,0.1702,0.1702,0.1702,0,0.072,0.0727,0.0677,0.07,0.0733,0.0733,0.0847,0.0898,0.102,0.1093,0.1142,0.1237,0.1333,0.1439,0.1569,0.153,0.1594,0.1563,0.1631,0.1632,0.1414,0.1405,0.1438,0.1434,0.143,0.1427,0.1425,0,0.0659,0.0621,0.0614,0.0618,0.0638,0.0681,0.0741,0.087,0.0919,0.1067,0.1084,0.1199,0.1256,0.1314,0.1422,0.1517,0.1503,0.1493,0.1477,0.1399,0.1393,0.1391,0.1387,0.1419,0.1418,0.1417,0.1416,0,0.0533,0.0538,0.0502,0.0527,0.0563,0.0589,0.0677,0.0709,0.0858,0.0971,0.103,0.109,0.1145,0.1225,0.1297,0.1362,0.1497,0.1454,0.1462,0.1446,0.1376,0.1373,0.1374,0.1403,0.1405,0.1406,0.1406,0,0.0452,0.0404,0.0395,0.0428,0.0468,0.0494,0.0544,0.0625,0.0699,0.0888,0.0883,0.1014,0.1113,0.1138,0.1214,0.1266,0.1252,0.1216,0.1236,0.1252,0.1185,0.1068,0.0997,0,0,0,0,0,0.0361,0.0326,0.0324,0.0326,0.0378,0.0421,0.0511,0.0572,0.0707,0.0732,0.0828,0.0896,0.098,0.1014,0.1038,0.1113,0.1246,0.1129,0.1212,0.1331,0.1346,0.1287,0,0,0,0,0,0,0.0296,0.0261,0.0275,0.027,0.0285,0.0327,0.038,0.0471,0.0495,0.0643,0.0694,0.0815,0.0908,0.0975,0.1013,0.1034,0.106,0.1219,0.1216,0.1322,0.1336,0.1348,0.1292,0,0,0,0,0]},{"header":{"parameterUnit":"m.s-1","parameterCategory":2,"la1":30.2991,"la2":30.254,"lo1":-89.0895,"lo2":-89.0444,"dy":0.0017,"dx":0.0017,"nx":28,"ny":28,"refTime":"2024-08-15T21:00:00:Z","depth":"4","parameterNumber":3,"parameterNumberName":"V-component_of_CURRENTS"},"data":[0,0,0,0,0,0,0,0,0,0,0,0,0,0,0,0,0,0,0,0,0,0,0,0,0,0,0,0,0,0,0,0,0,0,0,0,0,0,0,0,0,0,0,0,0,0,0,0,0,0,0,0,0,0,0,0,0,0,-0.0068,-0.0068,0,-0.0065,-0.0065,-0.0065,-0.0059,-0.0059,-0.0059,-0.0059,-0.0056,-0.0056,-0.0055,0,0,0,0,0,0,0,0,0,0,0,0,0,-0.0074,-0.0074,-0.0068,-0.0068,-0.0068,-0.0065,-0.0065,-0.0065,-0.0059,-0.0059,-0.0059,-0.0059,-0.0056,-0.0056,-0.0055,0,0,0,0,0,0,0,0,0,0,0,0,0,-0.007,-0.0074,-0.0068,-0.0066,-0.0066,-0.0065,-0.0065,-0.0065,-0.0059,-0.0059,-0.0059,-0.0059,-0.0056,-0.0056,-0.0055,-0.0056,0,0,-0.0055,-0.0055,0,0,0,0,0,0,0,0,-0.0071,-0.007,-0.0066,-0.0066,-0.0066,-0.0063,-0.0066,-0.0062,-0.006,-0.0061,-0.0059,-0.0059,-0.0059,-0.0058,-0.0057,-0.0056,-0.0056,-0.0055,-0.0055,-0.0055,-0.0055,0,0,0,0,0,0,0,-0.0071,-0.007,-0.0066,-0.0066,-0.0066,-0.0066,-0.0066,-0.0065,-0.006,-0.0061,-0.0061,-0.0062,-0.0058,-0.0057,-0.0057,-0.0056,-0.0055,-0.0055,-0.0055,-0.0055,-0.0063,-0.0063,0,0,0,0,0,0,-0.0073,-0.007,-0.0066,-0.0066,-0.0069,-0.0066,-0.0066,-0.0064,-0.006,-0.0059,-0.0062,-0.0061,-0.0057,-0.0057,-0.0057,-0.0057,-0.0055,-0.0055,-0.0055,-0.0063,-0.0063,-0.0064,0,0,0,0,0,0,-0.0073,-0.0072,-0.0067,-0.0069,-0.0069,-0.0066,-0.0064,-0.0064,-0.0064,-0.006,-0.006,-0.0063,-0.0057,-0.0057,-0.0053,-0.0057,-0.0055,-0.0055,-0.0063,-0.0063,-0.0063,-0.0059,0,0,0,0,0,0,-0.0073,-0.0072,-0.0074,-0.0069,-0.0069,-0.0065,-0.0064,-0.0064,-0.0065,-0.0064,-0.0061,-0.0061,-0.0057,-0.0054,-0.0053,-0.0057,-0.0055,-0.0062,-0.0063,-0.0063,-0.0059,-0.0059,-0.0059,0,0,0,0,0,-0.0073,-0.0071,-0.0074,-0.0074,-0.007,-0.0065,-0.0064,-0.0062,-0.0065,-0.0063,-0.006,-0.0061,-0.0057,-0.0053,-0.0053,-0.0057,-0.0062,-0.0063,-0.0063,-0.0058,-0.0059,-0.0059,0,0,0,0,0,0,-0.0074,-0.007,-0.0074,-0.0071,-0.0069,-0.0064,-0.0062,-0.0064,-0.0061,-0.0061,-0.006,-0.0059,-0.006,-0.006,-0.0056,-0.0062,-0.0062,-0.0062,-0.0058,-0.0059,-0.0059,-0.0061,-0.0055,0,0,0,0,0,-0.0076,-0.0074,-0.0072,-0.0071,-0.0069,-0.0068,-0.0068,-0.0065,-0.0062,-0.006,-0.0061,-0.0062,-0.0062,-0.0061,-0.0062,-0.0061,-0.006,-0.0066,-0.0066,-0.0066,-0.0069,-0.0064,-0.0063,-0.0066,-0.0066,-0.0066,0,0,-0.0077,-0.0076,-0.0075,-0.0072,-0.0069,-0.0061,-0.0067,-0.0062,-0.0056,-0.0061,-0.0056,-0.0064,-0.0063,-0.0063,-0.0064,-0.0062,-0.0067,-0.0067,-0.0067,-0.007,-0.0064,-0.0064,-0.0064,-0.0066,-0.0066,-0.0066,0,0,-0.0071,-0.0075,-0.0068,-0.0064,-0.0061,-0.0059,-0.0059,-0.0056,-0.0055,-0.0054,-0.0057,-0.0068,-0.0066,-0.0069,-0.0069,-0.0073,-0.007,-0.0075,-0.0076,-0.007,-0.007,-0.0069,-0.007,-0.007,-0.0073,-0.0073,-0.0073,0,-0.0071,-0.0059,-0.0066,-0.0056,-0.0045,-0.0057,-0.004,-0.0044,-0.0043,-0.004,-0.0051,-0.0062,-0.0069,-0.0067,-0.0074,-0.0074,-0.007,-0.0072,-0.007,-0.0069,-0.0069,-0.007,-0.007,-0.0073,-0.0073,-0.0073,-0.0073,0,-0.0056,-0.0045,-0.0039,-0.0028,-0.0023,-0.0009,-0.0012,-0.0012,-0.002,-0.0025,-0.0034,-0.0052,-0.0055,-0.0068,-0.0074,-0.0077,-0.0075,-0.0071,-0.0066,-0.0068,-0.007,-0.0069,-0.0073,-0.0073,-0.0073,-0.0073,0,0,-0.0051,-0.0029,-0.0026,-0.0003,-0.0001,0.0015,0.0015,0.0024,0.0034,0.0006,0.0013,-0.0019,-0.0038,-0.0041,-0.0057,-0.0069,-0.0073,-0.0071,-0.0071,-0.0069,-0.0062,-0.0061,-0.0061,-0.0063,-0.0063,-0.0063,-0.0064,0,-0.003,0.001,0.0007,0.0047,0.0074,0.0067,0.0072,0.0072,0.0063,0.0061,0.0022,0.0019,-0.0023,-0.0025,-0.0046,-0.0062,-0.0072,-0.0074,-0.0064,-0.0064,-0.0059,-0.006,-0.0062,-0.0064,-0.0064,-0.0064,-0.0064,0,-0.0012,0.0021,0.0067,0.0109,0.0119,0.0132,0.0157,0.0163,0.0143,0.0132,0.0104,0.0075,0.0042,0.0011,-0.0028,-0.0023,-0.0045,-0.0066,-0.0066,-0.0066,-0.0063,-0.0062,-0.0063,-0.0063,-0.0064,-0.0064,-0.0064,0,0.0018,0.0063,0.0111,0.0125,0.016,0.0179,0.0193,0.0186,0.0204,0.018,0.0183,0.0132,0.0117,0.0074,0.0013,0.0003,-0.0026,-0.0036,-0.0058,-0.0058,-0.006,-0.0061,-0.0057,-0.0057,-0.0057,-0.0057,-0.0057,0,0.0047,0.0085,0.0134,0.0165,0.0223,0.0226,0.0274,0.0268,0.0271,0.0291,0.0227,0.0219,0.0133,0.0098,0.0039,-0.001,0.0,-0.0061,-0.0058,-0.0059,-0.006,-0.006,-0.006,-0.0057,-0.0057,-0.0057,-0.0057,0,0.0064,0.0093,0.0161,0.0221,0.024,0.0284,0.0338,0.0366,0.0356,0.0379,0.0375,0.03,0.0243,0.0164,0.0094,0.0037,-0.0014,-0.003,-0.0027,-0.0023,-0.0058,-0.0058,-0.0056,-0.0056,-0.0056,-0.0056,-0.0056,0,0.0079,0.0115,0.0208,0.0251,0.028,0.0346,0.0382,0.0404,0.0429,0.0424,0.0429,0.0378,0.032,0.022,0.0124,0.0026,0.0005,-0.0022,-0.0055,-0.006,-0.0058,-0.0058,-0.0058,-0.0055,-0.0055,-0.0055,-0.0055,0,0.0118,0.0148,0.0207,0.0286,0.0347,0.0421,0.0472,0.0501,0.0517,0.0519,0.0483,0.041,0.0342,0.0225,0.0155,0.0078,-0.0009,-0.0022,-0.0024,-0.0055,-0.006,-0.0057,-0.0058,-0.0055,-0.0055,-0.0055,-0.0055,0,0.0149,0.0193,0.0258,0.0325,0.0392,0.0453,0.0497,0.0526,0.0556,0.0544,0.0531,0.0441,0.0384,0.0253,0.0184,0.0112,0.008,0.0043,0.0038,0.0037,0.0053,0.0059,0.0105,0,0,0,0,0,0.0183,0.0224,0.0287,0.0361,0.0413,0.0458,0.0526,0.056,0.0584,0.0571,0.0555,0.0488,0.036,0.0286,0.0216,0.0175,0.0065,0.0088,0.002,-0.0055,-0.0055,-0.0053,0,0,0,0,0,0,0.0207,0.0269,0.0292,0.0357,0.0402,0.0473,0.0527,0.0556,0.0546,0.055,0.0482,0.0456,0.033,0.0401,0.0207,0.0183,0.0126,0.0031,0.0029,-0.0055,-0.0055,-0.0055,-0.0053,0,0,0,0,0]}]]